Theta_e
328 329 330 330 331 331 331 332 332 333 333 332 331 330 330 332 333 332 333 333 331 330 330 329 328 328 327 327 327 328 330 330 329 327 326 327 326 326 326 326 326 326 326 326 324 327 325 326 324 324 325 325 324 322 321 321 321 321 319 320 319 318 318 318 318 319 317 316 316 318 320 321 322 323 321 322 323 323 323 323 321 318 317 319 322
328 327 329 330 330 330 331 331 331 330 331 332 330 331 332 334 333 333 332 330 329 329 330 328 327 327 327 327 328 329 329 326 324 324 324 325 325 324 325 324 324 325 326 324 324 323 322 322 322 320 321 322 321 321 320 322 318 318 318 316 318 317 315 316 316 317 313 312 313 315 314 319 319 320 319 320 322 322 321 320 318 315 314 317 319
326 326 327 328 329 330 330 330 330 331 331 331 332 333 333 332 332 332 330 328 328 330 329 329 328 329 328 327 329 330 330 327 325 325 324 321 322 323 323 322 322 322 322 323 321 320 319 319 319 319 319 321 316 316 316 316 316 316 316 314 313 315 316 316 315 315 310 312 312 310 308 312 314 315 316 317 320 320 319 317 315 312 313 316 315
323 324 325 327 329 329 329 329 329 330 330 332 333 332 332 331 331 330 328 327 329 331 331 330 330 329 329 331 330 327 324 325 323 323 321 320 320 321 321 320 320 319 320 321 319 318 317 316 316 316 317 318 315 314 314 314 314 314 313 314 312 310 311 311 314 313 312 312 307 309 311 309 306 308 311 314 317 318 316 314 312 310 311 314 311
323 324 325 326 327 328 329 329 330 329 331 332 332 331 331 331 331 329 328 327 329 331 330 330 331 330 331 329 328 326 325 322 320 319 320 321 319 318 318 318 318 317 317 318 319 315 315 315 315 315 315 315 315 314 313 312 312 312 312 312 311 308 308 308 310 313 311 314 310 309 308 308 307 309 310 308 312 314 313 312 311 309 309 311 309
324 324 325 326 327 328 328 329 329 330 330 331 332 331 331 330 329 328 327 328 329 329 330 330 330 329 327 325 324 323 321 319 316 315 315 315 315 316 316 316 316 315 315 315 317 316 314 314 314 314 314 314 314 312 312 312 311 310 310 310 310 310 308 307 306 311 311 312 312 313 314 308 306 309 307 303 310 312 311 309 308 307 308 307 307
325 326 326 326 327 327 328 328 329 329 330 331 330 329 328 327 327 328 328 328 329 330 330 330 328 329 328 326 325 323 321 320 320 318 317 315 316 314 314 314 314 313 313 314 314 315 313 313 313 313 313 313 315 312 311 310 310 310 311 310 309 310 308 305 305 305 307 308 310 311 313 312 310 306 302 304 300 305 307 305 305 306 307 306 306
324 325 325 326 327 327 327 328 329 329 330 331 329 328 327 327 327 327 328 328 327 329 330 329 329 328 326 324 324 322 321 320 320 319 319 318 315 314 314 314 314 314 314 313 314 315 314 312 313 313 313 313 314 310 310 309 310 311 311 309 310 309 307 305 304 305 303 304 309 307 308 310 308 306 305 302 301 298 299 303 304 304 305 304 304
325 325 325 326 327 327 328 328 329 330 330 330 329 327 326 325 324 324 324 324 323 325 327 328 329 327 325 324 322 322 321 320 320 320 318 318 315 315 313 313 313 313 313 313 312 313 315 312 311 312 312 312 315 310 310 309 308 308 307 307 307 308 309 308 305 304 305 304 304 305 305 305 305 304 303 303 301 297 297 298 298 301 301 301 302
325 326 326 327 328 328 329 329 329 330 330 330 329 326 323 322 322 321 320 320 321 322 325 326 326 326 324 323 322 320 320 318 318 317 316 316 314 313 312 311 311 311 311 311 310 311 311 312 311 311 311 313 313 309 308 308 307 307 307 308 307 306 306 307 306 305 304 304 304 304 302 301 300 300 299 299 299 300 296 297 297 296 294 297 300
324 326 327 327 328 328 328 327 328 329 329 328 325 323 321 321 320 319 319 319 320 320 321 322 323 323 322 322 320 318 317 316 314 313 314 314 312 311 310 310 310 309 309 309 309 309 310 312 309 310 311 313 310 308 307 307 307 307 307 306 306 306 305 304 304 304 303 303 302 302 301 300 298 297 297 298 297 296 295 295 295 296 295 294 297
324 325 325 325 325 326 327 326 326 327 326 324 322 322 321 320 318 317 317 318 318 319 319 319 320 320 320 320 319 318 317 316 313 312 313 312 310 309 309 309 308 308 307 306 306 308 309 306 308 307 308 307 306 306 305 304 305 306 306 305 304 304 304 304 302 302 301 301 300 300 300 300 300 298 298 297 296 295 294 292 293 294 294 294 296
323 324 323 323 323 324 324 325 325 324 322 321 321 320 319 317 317 316 316 317 317 317 316 317 317 317 317 318 318 319 317 316 315 314 313 310 309 308 307 306 306 306 305 305 305 306 307 306 305 305 305 306 306 305 305 304 303 304 305 304 303 303 302 302 302 301 301 300 299 300 300 299 298 298 297 296 295 295 294 291 292 293 291 291 293
323 323 322 323 323 323 324 324 324 322 320 320 319 318 317 316 315 315 314 315 315 315 315 314 314 314 315 316 317 317 316 316 315 313 312 310 309 308 307 306 305 305 304 304 304 305 305 305 305 304 304 305 305 305 304 304 303 303 303 303 302 302 302 301 301 301 300 300 300 299 298 298 297 297 296 296 294 293 292 291 291 291 291 290 292
323 322 322 322 323 323 323 323 322 321 319 319 318 317 316 315 314 313 312 313 313 313 313 313 313 313 314 314 314 314 313 313 312 312 310 309 308 307 306 305 305 304 304 304 305 304 304 305 305 303 304 303 303 302 304 303 302 303 303 304 304 302 302 302 301 301 300 299 298 298 298 297 297 297 296 295 295 294 293 292 291 288 288 289 289
322 322 321 322 323 323 323 322 321 320 319 318 317 316 315 313 313 312 312 312 313 313 312 311 311 312 313 313 313 314 314 312 312 311 309 309 308 306 305 305 305 304 305 304 304 303 303 302 303 302 303 303 303 302 302 302 302 302 301 301 302 305 301 300 300 300 299 298 297 297 297 296 296 296 296 295 294 295 294 293 292 290 287 285 288
322 321 321 321 322 322 322 321 319 319 318 317 316 316 314 313 312 311 311 311 311 311 311 311 311 311 311 311 311 311 311 311 310 309 309 308 308 306 305 304 305 305 306 305 303 303 303 302 301 301 301 301 301 302 302 301 301 301 300 300 300 301 302 300 300 299 298 298 297 297 296 295 295 296 295 296 296 294 295 293 293 291 290 287 286
322 321 321 321 321 321 321 320 319 318 317 316 316 315 314 313 312 311 310 310 310 310 310 310 310 310 310 311 311 311 311 310 309 308 309 308 307 306 305 305 304 306 305 304 301 301 301 303 299 299 299 299 300 300 300 301 301 301 300 300 300 300 300 300 300 298 297 298 297 296 295 294 295 294 295 295 295 294 293 293 292 292 292 289 288
320 320 319 320 320 321 320 319 319 318 317 316 316 315 314 312 312 311 310 310 310 310 310 310 311 311 311 310 310 311 311 311 310 309 308 307 305 305 304 303 304 304 303 300 299 299 298 298 297 297 297 298 298 298 299 299 300 300 301 299 299 299 299 298 299 298 298 297 295 295 294 294 294 294 294 294 294 294 293 293 292 292 292 291 289
319 319 319 319 319 320 319 318 317 317 316 316 315 314 312 312 311 310 310 310 310 310 310 309 310 310 310 310 310 311 312 310 309 307 307 306 304 304 303 302 301 302 300 300 298 298 297 296 296 296 297 297 297 298 298 298 299 299 300 299 299 299 298 297 297 297 297 296 295 294 294 294 294 293 293 293 292 293 293 292 292 292 291 291 292
318 318 319 319 319 319 319 319 318 317 317 316 314 313 312 311 310 310 309 309 309 309 309 309 309 309 309 308 308 309 309 308 306 305 304 304 304 304 302 302 301 300 299 298 297 296 296 296 295 297 295 296 296 296 297 297 298 298 299 299 299 298 297 297 297 296 296 295 295 294 294 294 294 292 292 292 292 292 292 291 293 291 291 291 291
318 319 318 318 318 318 318 318 317 316 315 314 314 313 312 310 310 309 309 309 308 309 309 308 308 308 307 307 306 307 307 306 305 304 304 303 303 302 303 302 301 300 299 298 297 296 295 295 295 294 294 295 295 295 295 296 296 297 297 300 298 297 296 296 296 295 294 296 294 293 294 294 293 292 291 291 291 290 291 290 290 291 290 291 292
318 318 318 318 317 317 317 317 316 315 315 314 313 312 311 310 310 309 309 309 309 309 309 308 307 306 306 306 306 305 305 304 303 303 302 302 302 302 302 300 299 299 299 297 296 295 295 294 294 293 293 293 294 294 294 295 295 295 296 297 298 297 296 295 295 294 294 294 293 294 293 293 293 290 290 290 290 290 291 290 290 291 290 290 291
318 319 318 318 317 317 316 315 315 314 314 313 313 312 311 310 309 309 309 309 308 308 308 307 306 305 305 305 304 304 304 303 302 302 301 301 302 302 302 300 299 298 297 297 296 295 294 293 293 292 292 292 292 293 293 293 294 294 295 296 296 296 295 295 295 294 294 294 293 292 292 292 292 290 289 289 289 289 289 290 290 290 291 290 291
317 317 317 316 316 315 315 315 314 314 313 313 312 311 310 309 309 309 309 308 307 307 307 307 306 305 304 304 303 303 302 302 301 301 301 301 301 301 302 300 298 297 297 296 296 295 293 293 293 292 291 291 291 292 292 292 293 293 294 295 296 296 295 295 295 295 299 294 294 292 292 292 290 289 289 288 289 289 290 290 289 289 290 291 292
316 316 316 315 315 315 314 314 314 314 313 312 311 311 310 310 310 310 308 307 307 307 307 307 305 305 303 302 302 302 301 301 301 301 301 301 301 301 300 300 299 297 296 295 294 294 294 292 292 291 291 291 291 291 291 291 291 292 293 294 295 295 296 295 294 295 294 295 293 292 292 291 290 289 289 289 288 288 289 289 289 289 289 290 290
316 316 316 316 315 314 314 314 314 313 313 312 311 311 310 310 309 309 308 306 306 307 307 305 305 304 303 302 301 301 301 301 301 300 301 301 300 300 300 299 299 297 295 294 293 292 293 292 291 291 291 291 291 290 290 290 290 291 292 293 294 294 295 295 294 294 294 293 294 293 292 291 290 289 289 289 288 289 290 289 291 289 289 289 289
316 315 315 314 314 314 313 313 313 312 312 312 311 311 310 309 309 309 308 307 307 307 307 306 305 304 303 302 301 301 300 300 300 300 300 300 300 300 300 300 299 296 295 294 292 292 292 292 291 291 291 292 290 290 290 289 290 290 291 292 292 294 294 294 294 294 294 293 293 293 292 292 290 290 290 289 289 289 289 290 289 289 289 289 288
315 315 315 314 313 313 313 312 312 312 311 311 311 310 310 309 309 308 307 307 308 307 306 306 304 303 302 302 301 301 300 301 300 300 300 300 300 300 299 299 298 297 297 294 293 292 291 291 290 290 290 291 291 291 291 290 290 290 290 291 292 293 294 294 293 293 293 293 293 293 292 292 297 298 299 297 297 297 292 290 289 289 290 289 288
314 314 314 314 313 313 312 312 311 311 311 311 310 309 309 308 308 307 307 307 307 306 305 304 304 303 302 302 301 301 300 300 299 299 299 299 299 299 299 297 296 296 295 294 293 293 291 290 290 289 289 290 290 291 294 294 294 292 291 291 293 293 295 293 294 293 293 293 293 293 298 299 299 300 299 297 295 295 296 295 292 290 290 289 288
314 314 314 313 313 312 312 311 311 311 311 311 310 309 309 308 308 307 307 307 307 305 305 304 303 303 302 301 301 300 299 299 299 299 299 299 299 299 297 296 294 294 293 294 292 291 290 290 289 288 288 290 290 292 293 292 292 295 294 292 293 294 294 292 293 293 291 293 292 292 292 297 299 300 297 296 295 294 293 293 294 294 295 292 289
314 313 313 312 312 311 311 311 311 311 311 310 309 308 308 307 307 307 307 307 306 305 303 303 302 302 301 301 300 300 299 298 298 298 299 299 299 297 296 294 293 292 292 291 290 290 289 289 289 288 288 289 289 294 291 292 292 293 296 294 293 294 294 292 291 291 292 292 291 292 292 293 294 294 295 293 293 294 293 293 293 293 293 293 293
313 313 312 312 311 311 311 311 311 311 311 310 309 308 307 307 307 306 306 306 305 303 303 302 302 302 301 301 300 299 298 298 298 298 299 298 298 297 296 294 292 292 291 290 289 289 288 289 288 288 288 288 288 293 291 292 292 292 293 294 292 292 292 291 291 292 291 291 291 292 291 292 292 299 298 291 289 290 293 293 293 294 293 293 291
314 313 312 312 312 311 312 312 312 312 311 309 309 308 308 308 307 306 305 304 303 302 302 302 302 301 301 300 299 299 298 298 298 298 298 298 298 297 296 295 294 292 290 290 289 289 289 288 288 287 287 287 288 292 291 292 292 292 292 293 290 291 290 290 291 292 291 290 290 290 290 291 290 290 290 290 290 289 290 290 290 289 289 291 292
313 312 312 311 311 311 311 311 311 311 309 308 307 307 307 306 306 305 304 303 302 302 301 301 301 300 300 299 299 299 298 297 297 298 297 297 297 296 296 296 294 292 291 290 290 289 289 290 288 287 287 287 289 292 291 291 291 292 292 292 289 291 290 289 290 291 291 290 289 290 289 289 289 290 292 293 291 290 290 290 289 289 289 289 289
313 312 312 311 311 311 311 311 311 310 308 307 306 306 305 305 306 304 303 302 302 301 301 300 300 299 299 299 299 298 297 297 297 297 297 296 295 296 295 295 295 293 292 292 290 291 291 289 288 287 287 286 288 291 291 291 291 291 293 292 288 288 288 289 289 290 290 290 290 290 289 289 290 290 293 293 293 292 289 289 288 288 288 288 289
313 313 312 312 312 311 312 311 310 309 307 307 306 305 305 305 304 302 302 301 301 300 299 300 299 299 299 299 299 298 297 296 297 296 295 295 295 294 294 295 294 293 293 292 292 292 292 290 289 288 286 286 287 291 291 291 291 291 291 288 287 288 288 288 288 289 289 290 290 292 291 291 292 290 293 291 291 292 289 288 287 287 288 287 288
312 312 311 311 311 312 312 311 308 307 307 306 306 305 305 304 302 301 301 300 300 299 299 299 298 298 299 299 299 298 297 296 296 296 295 294 294 294 294 295 293 292 292 292 293 292 292 292 290 287 287 287 287 291 291 291 291 291 291 287 288 287 286 287 287 288 289 288 290 298 299 292 291 291 292 290 290 291 288 287 287 286 286 286 287
312 311 310 310 311 311 310 309 308 306 306 306 305 305 304 303 301 300 300 299 299 298 298 298 298 298 298 298 299 298 297 296 295 295 295 294 294 294 294 293 292 292 292 292 294 293 292 292 291 289 296 289 287 291 292 290 291 291 290 286 288 286 287 286 286 288 289 289 289 292 295 295 293 292 290 290 290 290 288 287 287 286 286 286 287
311 311 311 311 311 310 308 307 307 306 306 305 305 304 303 302 300 300 299 298 298 298 299 299 298 298 298 298 298 298 296 296 295 294 294 294 295 294 293 292 291 291 291 291 293 293 293 293 292 292 294 290 289 289 291 291 291 291 292 289 287 287 288 286 286 289 289 288 288 289 292 291 290 290 290 289 289 290 289 288 287 286 286 286 288
310 310 307 310 310 309 308 307 307 307 306 305 304 303 302 301 300 299 298 298 299 299 299 298 298 298 297 297 297 297 296 295 295 295 295 295 295 294 293 292 292 292 291 291 292 292 293 292 292 292 291 290 290 288 290 290 291 291 291 290 286 287 286 285 284 286 285 286 287 288 289 291 290 290 289 289 290 290 290 290 288 287 287 289 290
310 308 308 309 309 308 308 308 307 307 306 305 304 302 301 300 299 298 298 299 299 298 298 297 297 297 297 297 296 296 296 296 295 295 294 294 294 294 294 293 293 292 292 292 292 292 291 291 290 293 293 291 294 296 288 291 290 290 290 291 288 287 287 287 285 285 286 287 287 287 288 290 290 289 289 290 290 290 290 291 289 289 289 289 290
307 307 308 308 307 307 308 307 306 307 306 305 303 301 301 300 299 298 299 298 298 297 297 297 296 296 297 296 296 296 296 297 296 295 294 293 293 294 294 294 293 293 293 293 293 293 292 291 290 291 292 292 291 294 294 291 290 290 290 290 290 288 289 289 285 285 285 287 287 287 289 292 289 289 289 290 290 290 291 289 289 289 289 289 290
308 308 308 308 308 308 307 306 306 306 305 304 303 301 300 299 298 298 298 298 297 297 297 297 296 296 296 296 296 296 296 296 295 294 294 294 294 294 294 294 294 294 293 293 293 293 292 291 291 290 291 290 289 289 293 292 290 290 290 290 289 289 289 288 288 287 286 286 287 287 289 289 289 289 289 289 289 290 289 289 289 289 289 290 288
307 307 307 307 307 306 307 305 305 305 304 304 303 301 299 298 298 298 297 297 297 297 297 296 295 295 296 296 296 296 296 295 295 295 295 295 295 295 294 294 294 294 294 293 293 293 292 291 291 292 290 288 289 288 288 290 290 290 290 289 289 289 289 289 287 287 287 288 289 289 289 289 289 289 289 289 289 290 289 289 289 289 291 285 286
307 306 306 307 307 306 306 305 304 305 304 304 303 301 299 298 298 298 298 298 297 296 296 296 295 296 296 297 295 295 295 296 296 296 296 296 296 295 295 294 294 294 294 294 293 292 292 291 291 290 289 289 289 287 287 287 291 292 290 290 289 289 291 291 290 289 289 289 289 289 289 289 289 290 289 287 286 289 289 289 289 290 286 285 285
306 306 305 306 305 304 304 304 303 304 304 303 302 301 300 299 298 298 298 298 297 296 296 296 296 296 296 296 295 296 296 297 296 296 297 297 296 295 294 294 294 294 294 293 293 292 291 290 290 290 290 289 289 288 286 285 285 283 283 287 285 287 290 290 288 288 288 288 289 290 288 288 288 289 288 288 288 289 287 287 286 285 285 285 285
306 305 306 305 304 303 303 303 303 303 303 303 302 300 300 299 299 298 298 297 297 296 295 295 296 296 296 296 296 293 295 296 296 296 296 296 296 296 294 294 294 294 293 292 291 290 290 290 290 289 289 288 287 286 285 285 285 283 283 283 285 286 283 283 285 286 286 288 288 288 288 287 286 286 285 285 285 286 285 285 285 284 285 285 287
305 305 304 304 304 303 303 303 303 303 302 301 300 300 299 299 298 298 298 297 296 295 295 295 296 296 295 296 296 296 296 296 296 296 296 296 296 295 295 294 293 293 294 293 291 291 290 289 290 290 288 287 287 286 287 287 286 288 286 285 285 284 284 284 288 289 288 287 286 285 285 285 284 284 283 283 284 284 284 285 285 285 284 284 284
305 305 305 304 304 303 302 301 301 301 301 300 299 299 299 299 298 298 298 297 296 295 295 295 295 295 295 295 296 296 296 296 296 295 294 292 289 292 293 293 291 292 292 291 292 291 292 290 289 289 290 289 287 288 289 288 288 289 289 289 289 289 288 287 288 288 287 283 282 281 282 282 283 282 281 281 283 282 282 283 284 285 284 283 284
305 304 303 303 303 301 300 299 299 299 299 299 299 298 298 298 298 298 298 297 296 295 295 295 295 295 295 296 296 296 296 296 295 294 293 292 291 289 288 288 290 291 291 290 290 291 291 290 291 289 289 289 289 289 289 289 289 289 289 289 288 288 288 288 288 285 281 280 279 281 283 282 281 281 279 282 282 282 281 281 283 283 283 283 283
Wind_Speed
7 7 8 9 10 8 7 6 7 7 6 6 6 6 5 6 7 6 4 4 6 6 5 6 7 6 5 6 7 5 6 6 6 5 6 5 6 7 7 6 7 7 7 8 7 6 5 5 6 6 6 7 6 5 4 6 6 5 3 4 6 6 8 8 9 5 5 6 3 3 5 4 2 3 7 8 7 6 6 8 8 10 10 9 9
9 8 9 9 9 8 6 6 7 9 6 6 6 6 5 5 6 6 4 3 4 4 5 5 3 4 6 6 6 6 6 6 6 5 5 5 7 7 7 7 7 7 7 7 7 6 5 5 6 6 6 5 5 4 5 6 6 6 4 4 4 5 5 8 9 6 6 4 5 7 4 6 2 3 6 8 6 6 7 8 9 10 11 9 9
9 9 9 9 9 9 7 6 6 7 8 6 6 6 5 5 5 4 4 4 3 4 4 5 4 5 6 5 6 6 6 6 6 5 5 6 7 7 7 6 6 6 6 6 5 5 5 6 6 5 5 4 6 7 6 7 6 6 6 4 4 4 4 7 9 8 4 5 1 1 4 7 6 6 2 8 6 6 7 9 9 10 12 9 9
12 12 11 11 8 8 7 6 6 7 6 6 5 6 5 4 4 4 4 4 4 4 5 5 6 7 6 7 7 7 7 6 6 5 5 7 8 6 6 5 5 6 6 5 6 6 6 6 5 6 6 5 6 7 7 7 6 6 6 7 3 5 5 6 7 9 8 6 5 2 3 1 5 3 8 7 2 6 9 9 9 11 10 10 9
12 12 12 10 11 10 8 7 7 7 6 5 5 5 4 5 4 5 5 4 4 5 6 7 9 8 8 9 9 9 6 5 6 6 5 6 6 6 5 5 7 7 6 6 6 7 6 6 6 5 6 6 6 7 6 5 5 5 6 6 6 3 5 4 7 8 10 8 3 3 3 3 3 7 9 3 6 4 7 8 10 12 9 10 9
14 15 13 11 10 9 9 9 7 6 6 5 6 6 5 5 5 5 4 5 6 6 7 8 9 11 10 9 8 6 6 5 6 6 4 5 5 3 6 6 7 7 7 7 7 6 7 6 6 6 7 7 6 6 5 5 6 6 5 5 6 5 5 7 6 6 7 8 8 6 4 3 5 6 5 7 3 2 5 7 8 10 7 10 8
10 11 11 11 11 10 11 9 8 8 6 6 7 6 5 4 5 5 5 5 5 5 6 7 7 7 8 9 8 7 7 5 5 4 6 5 5 6 6 7 7 8 7 6 6 6 6 6 6 6 6 6 5 6 6 5 5 4 4 5 5 5 6 8 7 5 4 7 7 7 7 6 7 6 5 6 8 3 4 9 6 10 6 8 9
12 13 13 11 10 11 11 9 8 8 8 8 7 5 6 5 5 5 4 4 3 4 5 5 8 7 7 7 7 7 8 8 7 6 5 5 6 6 7 7 7 7 7 7 6 6 6 6 6 6 6 5 5 6 5 4 5 4 4 4 4 5 5 7 5 6 6 5 5 7 6 6 7 8 5 3 2 9 9 3 3 10 4 5 8
11 12 14 12 12 11 11 10 8 9 9 8 7 6 5 4 5 5 5 4 3 4 5 4 5 7 8 8 8 5 8 7 6 6 6 5 8 7 8 7 7 8 8 7 6 6 5 5 5 5 5 4 4 5 4 4 4 4 4 5 5 6 5 4 5 6 6 6 5 6 6 6 6 7 7 7 6 5 7 11 15 6 2 5 7
9 9 11 10 11 11 10 10 9 9 8 8 7 6 5 5 7 7 6 5 4 6 6 6 6 8 8 9 10 7 6 6 6 7 6 6 8 7 6 7 6 6 7 7 6 5 6 5 5 5 4 5 4 4 3 3 3 3 4 4 5 7 6 7 8 7 7 7 7 6 6 5 5 6 7 7 4 4 6 10 9 15 16 7 6
9 9 10 10 10 11 12 12 10 10 8 8 8 7 5 6 8 8 6 6 6 7 7 7 6 6 8 9 10 10 8 8 7 6 6 7 8 7 6 6 6 6 6 6 5 5 5 5 5 4 5 5 5 5 4 4 4 4 5 7 8 8 8 9 9 8 8 8 7 7 7 7 6 6 6 6 4 4 5 5 8 9 10 14 9
10 11 11 12 12 12 12 11 11 10 9 9 8 7 7 7 8 9 6 6 7 7 8 7 7 6 6 8 9 8 8 7 8 7 7 8 8 7 6 6 6 6 6 6 5 5 5 5 4 5 6 6 6 4 5 5 5 6 6 7 7 8 8 9 8 8 8 7 8 7 8 8 8 7 6 6 5 5 4 4 6 9 6 5 9
12 10 11 11 12 13 13 12 11 10 10 10 10 8 7 7 7 9 7 6 7 7 8 7 7 6 6 6 6 6 6 7 7 7 6 8 7 7 7 7 6 6 5 6 4 5 4 6 6 6 6 6 5 6 5 7 6 6 6 7 8 8 8 8 8 7 7 8 8 8 8 9 8 6 7 6 5 4 5 6 5 4 6 9 9
12 11 11 12 12 11 13 12 11 10 10 9 9 8 6 6 7 9 7 6 6 7 7 8 7 6 6 6 7 6 6 7 6 7 7 7 6 7 6 6 7 6 5 4 3 4 5 4 5 6 5 6 6 6 6 6 6 7 6 7 7 7 8 8 7 7 8 8 8 9 8 8 7 7 6 6 6 6 6 6 6 5 4 7 7
12 12 12 12 14 13 13 12 10 10 11 9 8 8 7 7 8 9 8 7 8 7 7 8 6 6 6 7 7 6 7 7 6 6 7 8 7 8 6 6 7 5 5 3 4 5 5 6 6 7 6 6 6 6 6 7 6 7 7 7 7 7 8 8 8 9 10 10 10 8 8 7 6 6 5 5 4 4 4 5 6 10 7 5 9
13 13 12 12 13 13 11 10 10 10 11 9 9 8 8 7 7 8 9 7 7 7 7 7 6 6 7 8 7 7 7 7 7 6 7 7 8 8 7 6 6 6 4 4 4 5 6 6 7 7 6 6 6 6 6 7 7 8 7 7 8 5 8 10 9 10 10 10 9 7 8 6 5 4 4 4 4 4 4 4 5 5 7 10 9
13 13 12 13 11 12 12 10 10 11 10 10 10 9 10 9 8 9 8 7 7 7 7 6 6 7 6 7 7 7 7 8 9 8 8 7 8 8 7 5 5 5 5 4 5 4 6 6 7 7 7 6 7 6 6 6 7 7 7 7 7 6 8 9 8 9 8 8 8 8 6 5 3 3 3 4 4 3 3 3 4 5 5 5 8
14 13 13 13 12 14 13 10 11 11 11 11 11 9 9 8 9 10 8 9 6 7 6 6 7 7 6 7 6 7 7 8 9 9 7 8 7 7 5 6 5 5 5 5 6 7 6 7 7 7 7 7 7 7 6 6 6 7 6 6 5 6 8 8 8 8 7 7 7 6 4 5 3 4 5 4 4 5 5 5 5 4 4 5 6
13 14 13 13 13 13 13 12 12 12 12 11 10 10 9 7 7 8 9 8 7 6 5 5 5 5 5 7 7 7 7 8 7 8 7 8 7 6 5 4 5 6 7 6 7 7 7 7 6 6 7 7 7 7 7 7 6 6 5 6 6 7 9 8 7 7 5 7 6 5 3 4 4 4 4 5 5 6 6 5 5 4 5 3 4
14 14 13 13 12 13 13 13 13 13 13 12 12 10 10 9 9 8 7 7 7 6 6 6 5 6 6 6 5 6 7 8 7 7 7 7 6 6 6 7 7 6 7 7 7 7 7 7 6 6 7 7 7 7 7 6 6 5 5 7 6 8 9 8 6 5 5 5 5 4 3 3 3 4 5 6 6 5 5 5 5 5 4 3 3
15 14 13 13 13 12 12 12 12 11 11 11 11 12 11 9 9 9 10 8 7 6 6 5 6 6 6 6 5 6 8 8 8 7 8 7 6 6 7 6 6 7 7 8 7 7 7 6 7 7 7 7 7 7 6 6 6 6 5 6 6 7 8 6 6 5 4 4 4 3 3 4 3 5 5 5 5 5 4 4 4 4 5 5 4
15 14 13 13 13 12 12 11 11 11 12 12 11 11 11 10 10 9 9 8 8 6 6 6 5 5 5 5 6 6 7 7 8 7 7 7 6 6 6 7 8 6 8 8 8 6 6 6 6 6 6 6 6 6 6 6 7 6 6 4 6 7 7 6 6 4 3 3 3 3 4 4 4 4 4 4 4 4 4 5 4 5 5 6 6
15 14 13 13 12 12 13 13 14 13 12 12 11 11 11 11 10 9 10 9 8 7 5 4 5 5 6 5 6 7 8 8 8 7 7 6 6 6 7 9 8 7 7 8 7 7 7 6 6 6 6 6 5 5 5 6 6 6 5 4 4 6 6 6 5 4 3 3 4 4 3 3 2 3 3 3 3 3 3 4 5 4 5 6 6
12 12 12 12 12 13 12 12 13 12 13 13 11 10 10 9 9 10 10 9 7 6 6 5 6 6 6 6 6 7 8 8 8 7 7 6 7 6 7 9 8 7 9 7 7 7 6 5 6 6 6 5 6 5 6 6 5 5 4 4 3 4 4 5 5 4 3 3 4 4 1 1 1 3 3 3 3 3 3 3 4 5 4 6 6
13 14 14 13 13 14 13 13 12 12 12 12 12 11 10 9 9 10 9 7 7 7 7 8 8 7 7 7 6 7 8 8 8 7 7 7 7 7 7 8 8 8 8 8 7 5 5 5 6 5 5 6 5 5 5 5 4 3 3 3 3 2 4 5 4 4 4 4 4 3 2 1 1 3 3 4 3 4 4 4 5 5 5 6 6
16 14 14 16 16 14 13 13 12 12 13 12 11 11 10 10 9 9 9 7 8 7 8 9 8 8 7 8 6 6 7 7 7 7 7 7 8 8 8 7 8 9 8 7 6 5 5 5 5 5 5 5 5 5 5 4 4 3 3 3 2 2 3 4 4 3 3 4 4 3 3 2 1 1 2 3 4 4 5 5 5 6 6 6 6
18 17 15 13 13 15 16 15 13 12 12 12 13 11 10 10 10 9 8 8 8 8 9 9 8 8 7 7 7 6 7 6 6 6 7 7 8 8 8 7 7 9 9 7 6 6 4 5 5 5 5 4 4 4 4 4 3 3 3 3 3 3 2 3 2 3 3 4 4 4 3 2 1 0 1 3 4 5 4 6 5 6 6 6 7
12 12 15 17 16 15 16 15 14 13 12 11 11 13 13 12 11 9 9 9 8 9 9 9 8 8 8 7 6 6 6 6 5 6 7 8 8 8 8 7 8 9 8 7 6 5 4 4 4 4 3 3 4 4 4 3 3 3 3 3 3 3 2 3 3 2 3 4 4 3 3 2 2 2 2 3 4 4 4 6 7 5 6 7 7
17 17 16 16 16 15 15 15 14 14 13 12 11 10 9 9 9 8 8 9 9 10 9 9 9 8 7 7 6 5 5 5 6 6 7 8 8 8 7 7 8 8 7 7 6 5 5 5 4 4 4 4 5 4 3 3 3 3 2 3 3 2 1 3 3 1 1 2 3 3 2 4 3 4 5 5 6 6 4 5 8 6 7 7 8
18 17 17 16 16 16 16 15 15 16 15 13 12 11 12 12 11 10 10 10 10 10 10 9 9 9 8 7 7 5 6 6 7 7 7 8 8 7 8 8 8 8 7 6 5 4 4 4 4 4 4 4 4 3 4 5 4 2 3 3 2 2 1 2 4 2 1 1 2 2 1 2 4 7 8 8 8 10 10 8 8 7 8 7 8
17 16 16 16 16 16 16 16 16 17 16 14 12 12 12 12 11 11 11 11 11 10 10 10 9 9 8 7 7 7 7 7 7 7 7 8 8 8 9 9 8 7 7 6 5 5 4 3 4 4 4 4 3 3 5 5 7 6 3 4 4 4 4 3 0 3 3 2 2 1 1 4 5 6 6 9 9 11 12 13 14 14 12 9 8
18 17 16 16 17 17 17 17 16 16 17 14 13 12 12 12 12 11 11 11 11 11 11 10 10 9 8 8 7 7 7 7 7 7 7 8 9 10 9 8 8 9 7 5 5 4 4 3 3 4 4 4 3 4 5 7 9 9 7 5 5 5 4 3 3 2 1 2 3 1 2 3 4 4 5 5 7 11 13 14 15 15 15 15 13
18 18 18 18 18 17 17 17 16 15 15 14 15 14 14 13 13 12 11 11 11 11 11 11 11 10 10 9 9 8 8 7 7 7 7 8 9 9 9 8 9 8 7 7 5 4 4 3 4 4 4 2 3 6 8 9 9 9 9 7 4 4 3 4 4 3 3 2 2 1 2 4 5 8 7 5 5 7 11 15 15 14 13 15 16
16 17 18 17 15 14 14 15 15 14 14 14 14 15 14 13 12 11 12 11 11 11 11 11 11 11 10 9 9 9 8 7 7 7 7 8 9 9 7 7 8 8 8 7 5 5 4 4 4 4 3 3 4 6 8 9 9 10 10 7 3 3 3 4 4 4 1 3 3 1 2 5 5 6 6 6 5 6 9 10 10 9 8 11 14
17 16 15 16 16 15 14 13 13 14 12 12 11 10 10 11 12 12 11 12 11 11 11 11 11 10 9 9 9 9 9 7 7 7 7 8 8 7 8 7 8 8 8 8 6 5 4 4 3 3 4 4 3 5 7 9 9 9 9 7 3 3 3 3 3 3 3 1 2 3 3 4 5 7 7 9 7 8 10 9 9 8 8 9 9
18 20 18 17 17 18 17 14 11 12 12 14 13 12 13 13 12 12 11 11 11 11 11 10 10 10 10 10 10 9 8 8 8 8 8 7 7 8 8 7 7 6 6 5 4 4 4 4 3 4 4 4 2 5 7 8 8 7 6 3 3 3 3 3 3 3 3 3 3 4 4 6 6 7 11 15 14 10 8 8 9 8 8 8 8
17 17 18 16 15 15 15 14 13 13 13 13 12 13 13 13 12 11 12 11 11 12 12 11 11 10 11 10 10 10 9 9 9 9 8 7 7 7 7 6 8 7 7 6 6 4 5 5 3 3 4 3 1 2 5 7 7 5 4 3 3 3 3 3 3 3 3 3 3 3 4 5 6 7 13 16 16 13 7 8 8 8 8 7 9
14 12 11 12 13 13 14 14 15 15 14 13 14 14 14 13 12 12 13 12 13 12 11 11 11 11 11 10 10 10 10 9 9 10 9 7 6 5 5 6 9 8 7 7 5 5 4 5 5 4 4 4 2 0 2 5 5 4 3 3 2 3 3 3 4 3 3 3 4 9 8 4 6 8 14 17 16 10 7 7 7 8 10 10 10
16 18 17 15 15 16 14 14 15 16 14 14 15 16 14 13 13 13 12 13 12 12 12 12 11 10 11 10 10 10 10 10 10 9 8 8 7 7 6 6 7 7 7 6 6 6 5 4 4 5 6 5 3 3 2 3 4 3 2 2 2 3 4 4 4 5 5 5 6 7 9 8 6 10 16 16 17 11 6 7 6 7 9 10 10
13 13 16 17 15 14 14 16 17 16 15 15 15 14 14 14 13 12 13 13 13 12 11 11 11 11 11 10 10 11 10 10 10 8 7 8 7 7 7 7 6 6 7 6 6 6 6 6 4 4 4 4 3 2 1 2 3 3 3 1 2 5 4 4 4 3 6 6 5 6 8 10 11 13 15 16 16 15 7 7 6 7 9 11 10
16 15 14 13 14 16 15 15 14 14 14 15 14 14 13 12 12 12 14 12 11 10 11 11 11 11 11 11 10 11 11 9 9 9 9 7 7 8 7 7 6 6 6 5 6 5 6 5 5 4 4 3 3 3 2 3 3 3 2 4 2 2 0 1 3 3 3 4 7 7 7 10 13 15 15 16 15 15 12 7 7 7 7 10 12
12 16 16 13 13 12 13 13 13 15 15 14 14 14 13 13 13 14 12 10 10 11 10 11 11 11 11 10 10 9 9 9 8 8 8 8 6 7 7 7 7 6 7 7 5 5 5 4 3 4 4 5 5 5 2 2 3 3 3 3 4 0 1 1 4 4 5 6 6 6 7 10 14 15 15 14 15 14 14 7 9 13 15 15 11
14 13 13 15 13 14 14 13 13 14 14 14 15 15 14 13 14 13 10 11 11 11 11 11 11 11 10 10 9 10 9 7 8 8 9 8 7 7 6 7 8 7 7 7 6 5 4 4 3 3 3 4 4 3 3 2 3 4 3 4 3 1 1 1 2 3 4 6 6 6 7 12 15 15 13 14 14 13 9 8 13 14 14 15 12
14 17 16 15 14 13 13 12 13 13 13 13 15 14 14 14 14 10 10 11 11 12 12 12 11 11 10 10 10 10 9 7 8 8 8 8 7 7 7 7 8 8 7 7 6 6 5 5 5 4 3 4 3 3 4 4 3 4 2 3 2 3 3 1 0 2 4 5 6 7 8 14 13 14 13 13 13 11 8 12 13 14 13 11 8
17 15 15 14 15 15 14 13 13 15 13 13 13 15 15 15 11 11 13 13 13 13 13 12 12 11 11 10 9 9 8 8 8 9 9 8 7 7 8 7 8 8 8 8 7 6 6 6 6 6 6 4 3 2 2 3 5 3 2 1 3 4 5 4 3 3 2 4 8 11 12 12 12 12 13 11 9 9 12 11 12 13 11 7 8
13 13 14 13 13 14 15 15 14 15 14 13 13 14 16 13 12 12 13 14 14 13 13 13 11 11 11 11 10 9 8 8 8 7 7 7 8 8 8 7 7 8 7 7 6 6 6 6 6 6 7 6 4 3 3 3 3 4 4 1 3 3 3 4 3 4 7 10 11 11 13 13 11 10 8 6 5 6 9 11 12 11 7 7 7
17 15 15 13 14 14 15 15 15 14 13 13 13 12 12 11 13 13 13 13 13 13 12 11 12 11 11 11 11 9 9 8 8 6 6 6 7 7 7 7 6 6 6 6 6 5 6 6 7 7 6 6 4 4 4 4 3 5 2 1 3 2 4 5 5 6 8 9 11 10 8 8 7 9 7 6 6 7 7 8 7 7 7 7 7
14 15 15 14 15 15 15 15 15 13 12 12 12 12 12 13 12 13 13 13 13 13 13 12 13 11 10 10 10 12 12 8 8 8 7 6 6 6 6 7 7 6 6 6 5 5 6 7 7 6 6 6 6 6 5 5 7 5 2 0 1 1 3 3 5 6 6 6 6 8 8 6 7 7 7 6 6 6 5 5 7 7 7 6 7
14 13 15 15 15 15 15 15 14 12 13 12 12 11 13 14 13 13 14 14 13 13 12 12 11 10 10 9 9 9 9 8 8 7 6 6 7 7 6 5 4 5 7 7 6 7 7 7 8 8 8 7 6 6 7 8 7 6 2 1 1 2 2 2 3 5 5 6 6 6 7 8 6 7 6 6 6 6 7 7 7 7 7 7 7
13 13 14 13 13 14 14 14 12 12 12 12 12 12 13 13 13 13 14 14 13 12 12 11 10 10 10 9 8 8 8 8 8 7 6 2 7 3 2 5 5 6 9 10 12 7 8 8 7 7 8 9 9 9 9 10 10 7 5 5 5 2 2 3 5 6 4 4 4 4 6 4 6 6 6 5 6 6 6 7 8 7 7 7 7
13 13 12 13 12 12 12 12 11 11 12 12 12 12 13 13 14 13 14 15 14 12 11 10 10 10 11 10 9 8 8 7 7 7 5 5 3 3 8 8 4 7 10 9 7 11 13 12 11 7 6 7 9 9 9 10 9 6 5 4 3 2 3 5 6 5 1 0 3 5 6 6 4 4 4 4 4 4 6 6 7 7 7 8 8
Wind_Direction
124 116 106 106 99 95 104 104 102 101 96 105 107 109 119 130 134 135 133 131 133 129 126 131 127 113 93 104 109 102 93 84 73 66 71 78 74 66 62 57 55 54 55 57 57 55 48 43 41 31 36 47 51 45 34 35 31 30 13 21 21 23 20 5 356 326 8 349 332 325 319 331 358 82 52 30 23 21 28 36 28 24 17 9 19
133 120 112 101 109 122 122 122 129 119 114 114 123 128 125 123 130 129 126 121 119 124 132 121 106 126 130 127 116 101 96 90 90 71 75 74 75 74 68 60 56 56 54 55 55 53 48 41 37 34 39 53 60 49 45 41 37 33 17 25 19 40 38 6 360 1 26 358 330 333 340 329 1 41 57 26 20 21 32 39 31 25 14 7 19
137 120 116 126 131 136 136 134 131 126 124 122 128 128 121 116 121 124 116 119 117 123 115 117 105 110 121 128 120 100 73 89 92 90 86 80 68 70 69 63 62 57 52 55 59 51 54 51 42 44 51 53 55 47 43 42 34 36 31 38 7 24 45 20 17 31 10 313 250 33 356 360 335 2 360 22 15 30 38 41 32 24 9 17 16
147 136 142 145 142 139 136 133 129 122 121 129 131 122 118 120 126 122 116 115 118 113 110 108 111 111 104 113 96 94 112 97 86 82 81 79 70 68 65 67 63 58 51 53 60 55 53 54 53 53 51 47 62 65 51 49 38 36 36 34 35 45 20 22 22 20 27 5 20 17 293 45 333 12 336 322 21 45 44 40 36 16 7 20 15
141 145 152 154 148 148 140 131 130 129 132 133 128 125 123 125 126 129 124 122 118 118 121 123 116 106 105 96 100 96 80 87 89 68 65 82 82 64 62 60 60 60 54 56 59 58 53 51 56 55 57 51 63 66 62 56 53 48 42 49 40 68 44 28 19 21 30 28 48 15 1 20 1 318 323 275 16 15 39 43 35 16 9 19 15
156 160 159 152 145 135 134 138 142 136 132 123 118 119 125 129 127 126 120 117 121 127 134 135 136 134 131 125 124 120 115 108 106 119 102 89 92 87 64 62 68 64 58 56 58 58 56 52 53 58 58 59 61 70 69 59 50 49 40 62 57 42 87 51 31 11 30 32 37 51 49 29 336 320 18 313 359 63 67 44 32 19 4 18 16
161 153 155 152 144 139 140 148 147 141 130 125 119 122 126 133 136 132 134 132 132 136 143 136 132 136 134 135 136 134 123 106 116 119 112 104 95 81 80 68 64 66 57 56 59 63 61 52 54 61 66 66 67 70 64 61 60 59 53 60 62 61 56 66 48 8 9 31 27 35 46 50 34 30 8 303 331 354 63 10 22 16 2 23 15
165 165 160 153 149 146 149 147 146 141 131 125 126 133 143 146 134 128 127 127 128 136 139 149 141 138 122 116 120 125 124 132 134 120 110 112 97 90 81 72 64 66 66 58 55 61 62 53 53 59 67 69 75 73 76 67 63 53 61 62 66 69 71 73 63 39 56 11 12 28 27 38 41 42 34 23 314 327 319 22 102 6 5 33 12
169 162 161 157 154 151 152 145 139 134 135 137 144 146 140 129 113 105 99 100 104 127 140 140 126 127 124 123 117 120 124 129 127 117 117 111 93 75 76 73 66 63 64 64 54 55 59 57 52 61 64 64 69 72 70 71 75 72 57 53 59 53 55 64 67 46 39 29 14 18 26 34 35 36 21 20 21 339 315 345 333 356 62 14 9
168 154 149 152 153 151 146 134 137 138 137 141 139 129 127 121 114 106 100 100 107 112 120 120 122 124 125 129 128 129 125 120 117 119 113 105 96 91 83 82 76 69 63 61 56 49 56 51 55 58 59 67 65 66 59 51 43 53 54 60 57 58 46 53 56 49 51 47 52 54 50 27 34 26 25 16 4 28 339 332 344 341 337 352 16
161 150 148 151 148 143 141 143 139 136 140 143 136 132 128 122 116 107 110 101 94 96 101 103 107 116 126 130 132 134 134 126 120 115 114 106 100 94 88 86 81 74 65 55 52 48 49 48 52 56 59 63 67 65 63 60 49 52 56 61 61 60 55 55 56 58 60 56 51 54 60 57 53 52 33 22 31 15 341 333 332 339 320 323 347
155 150 150 145 141 142 141 140 142 141 141 142 134 133 129 125 117 108 97 95 92 94 94 95 99 102 112 126 132 135 135 131 127 126 118 107 104 99 95 88 75 68 59 58 44 42 51 48 49 55 58 60 61 65 59 58 57 58 58 63 63 61 60 61 61 60 60 62 54 51 55 56 52 50 41 39 36 23 11 337 333 328 308 310 316
159 154 153 150 148 147 145 144 142 144 144 146 139 133 126 121 116 110 104 101 95 94 96 95 94 96 107 113 117 123 124 122 118 111 103 109 110 105 97 89 83 73 58 66 51 51 57 56 54 57 58 58 62 56 49 51 54 58 62 63 65 65 63 65 65 64 67 65 65 56 58 56 54 46 45 43 32 21 25 0 340 335 318 318 327
161 156 159 156 150 154 147 147 145 143 145 145 136 129 124 116 112 107 106 97 96 92 95 92 88 94 98 104 109 112 112 113 110 108 110 109 108 103 98 100 94 95 87 82 79 70 65 67 69 66 63 62 62 60 55 51 56 60 59 63 63 62 61 62 65 65 61 63 64 63 55 56 54 46 46 43 31 23 17 7 333 332 316 320 316
162 160 163 161 155 155 149 148 146 147 146 141 134 130 121 118 115 112 105 101 100 102 101 100 99 99 98 99 105 110 113 109 102 105 114 113 107 102 97 95 98 99 101 99 78 72 66 63 63 61 56 59 58 58 54 53 56 60 58 61 58 57 58 61 59 63 64 64 64 66 64 56 52 48 49 39 31 34 15 352 356 351 343 342 336
166 160 160 161 158 153 143 142 147 150 147 142 139 134 126 124 119 112 114 113 109 106 102 106 103 102 99 100 106 113 113 103 97 100 102 108 109 106 102 99 100 101 95 84 69 74 69 65 60 57 55 53 53 55 56 55 55 61 58 60 61 56 64 63 67 68 68 68 69 66 65 57 46 44 43 36 32 19 7 358 4 7 356 340 339
165 162 160 159 158 153 145 146 150 150 149 147 144 138 133 131 122 115 111 107 107 107 109 106 109 103 103 105 109 109 108 108 111 107 106 103 105 104 108 107 98 93 88 76 72 65 68 66 61 54 50 48 47 43 48 54 59 61 63 63 64 61 68 70 72 73 69 71 68 65 68 59 41 32 23 26 12 7 8 3 12 15 355 344 345
164 159 157 159 160 154 146 150 154 153 147 142 138 133 132 130 128 123 120 116 115 113 110 113 113 111 112 109 107 107 105 107 112 113 111 108 101 100 101 100 95 90 88 85 76 70 61 61 61 57 52 50 47 41 42 41 51 62 67 69 73 69 65 68 72 74 71 74 72 67 61 56 32 27 22 2 7 5 4 7 7 359 1 14 341
159 158 159 163 164 158 147 153 153 150 145 140 133 132 128 124 124 122 123 124 125 118 117 117 119 120 122 120 115 107 103 106 107 109 112 107 105 105 102 99 86 87 88 81 75 68 66 58 59 57 52 50 45 40 37 39 41 54 59 66 59 68 73 74 70 75 72 75 73 68 53 52 27 25 17 16 12 11 7 5 2 3 354 3 327
163 161 164 163 162 156 149 154 155 153 147 141 137 134 132 131 126 121 117 120 121 123 127 126 126 122 123 116 110 105 109 112 114 113 107 106 108 106 104 97 101 94 90 85 76 74 67 64 57 57 54 49 47 40 37 39 44 43 54 62 57 73 80 82 78 74 82 79 77 68 55 52 32 33 28 21 18 13 11 3 357 352 337 324 305
165 163 162 162 159 151 148 152 151 149 143 141 142 141 138 134 132 133 132 131 129 136 133 139 135 131 126 122 117 115 114 114 111 109 107 107 108 106 105 108 94 89 91 81 79 73 69 67 60 55 54 51 49 42 34 41 44 38 37 66 66 75 86 90 90 80 77 83 84 83 59 46 46 46 26 18 16 9 0 353 339 338 330 319 320
163 161 159 161 157 150 149 151 150 149 148 145 143 139 141 142 142 138 134 140 141 148 150 151 138 127 118 115 116 117 115 110 110 110 108 107 106 104 106 96 94 92 89 85 80 74 70 64 64 56 56 55 53 48 40 46 43 37 27 43 80 84 91 97 95 91 87 91 94 79 54 51 46 52 26 20 3 359 355 347 339 339 327 322 317
162 160 160 160 157 153 154 155 155 154 150 145 145 147 146 146 145 145 142 148 150 154 148 131 123 113 111 114 118 120 120 117 113 112 110 109 105 103 102 101 98 91 84 85 83 79 72 69 67 59 57 57 51 52 46 50 45 42 34 23 63 100 108 108 104 117 122 106 71 67 65 68 48 48 15 360 358 352 344 342 329 322 317 308 306
157 156 156 156 153 152 150 155 156 156 152 151 151 147 146 149 150 148 148 150 143 143 135 125 114 111 116 118 122 126 121 119 117 118 115 114 111 102 103 101 101 96 90 82 83 83 79 74 72 63 60 59 51 46 47 45 46 41 35 31 42 103 108 117 128 139 133 102 96 79 76 85 73 56 359 358 349 341 331 326 317 309 298 295 291
158 158 157 154 155 157 158 159 161 158 154 152 151 151 151 154 154 153 151 144 139 139 134 127 120 121 126 126 128 126 123 121 122 122 120 118 108 103 105 108 105 98 95 92 83 79 81 74 71 67 64 57 53 51 51 42 38 34 37 42 35 104 121 129 140 154 140 115 110 132 160 152 85 50 347 355 335 335 317 311 310 303 299 290 293
164 160 158 163 165 160 156 159 161 162 158 153 151 153 153 154 158 151 147 138 141 141 132 125 123 127 132 129 129 126 126 128 130 127 126 117 108 108 110 108 107 102 95 91 94 86 83 79 72 69 66 63 56 55 52 47 33 26 29 27 36 58 123 134 136 133 129 138 136 159 165 161 130 81 342 326 324 316 309 308 305 304 299 297 294
168 168 166 159 160 164 163 162 162 163 161 156 153 154 152 152 154 154 146 139 141 137 135 132 134 133 130 131 131 131 129 131 131 131 124 115 113 116 114 113 111 107 105 101 95 92 78 79 74 69 63 63 62 54 51 40 39 31 27 25 14 35 71 135 148 145 133 143 153 151 164 177 174 206 309 314 302 307 305 305 301 299 300 301 301
160 161 165 170 169 165 164 162 160 161 161 157 158 158 158 158 159 157 147 143 147 143 138 133 131 131 132 134 132 131 130 127 128 128 124 120 118 117 117 116 111 107 106 107 105 99 90 79 76 73 67 66 60 53 42 32 34 29 27 22 10 36 40 147 159 169 154 162 157 141 162 202 213 225 253 297 285 293 297 302 302 301 304 306 303
170 174 172 168 169 169 166 163 159 157 160 159 156 156 149 149 151 148 145 150 149 142 137 135 135 135 136 133 130 128 123 123 126 127 125 124 123 121 117 114 108 105 105 106 106 103 97 86 70 68 61 51 55 44 29 24 19 22 37 17 359 16 37 156 166 183 219 157 136 159 180 222 242 282 274 288 297 295 299 303 305 310 308 309 305
176 176 175 173 170 167 167 163 160 161 162 161 160 161 159 156 158 155 153 152 148 147 144 143 140 140 139 136 132 127 127 127 129 130 130 125 122 118 115 112 108 106 107 107 104 100 96 93 84 67 61 54 49 32 24 18 14 20 24 24 6 349 24 193 169 182 242 33 123 160 193 217 263 268 275 297 305 309 311 309 305 312 311 309 305
176 173 173 172 170 169 167 168 166 165 167 166 166 161 157 157 158 157 157 155 149 147 144 144 142 143 141 138 133 134 135 135 136 131 127 122 121 121 119 117 115 113 109 107 101 96 90 85 89 87 66 58 41 30 19 37 41 44 56 46 29 12 26 12 209 199 195 118 111 123 250 271 269 286 294 296 310 317 319 318 316 314 311 308 309
176 176 172 171 172 173 173 172 170 170 168 166 162 159 158 161 159 160 157 155 149 148 148 146 145 145 143 141 138 140 140 141 137 135 129 123 124 125 125 125 121 112 110 107 102 102 100 96 89 75 67 55 45 19 40 54 49 46 51 57 47 41 39 43 37 328 268 117 156 212 271 272 275 279 300 315 318 319 319 320 320 318 316 311 303
174 174 176 175 176 176 176 174 171 171 171 167 160 158 165 164 162 157 153 154 151 149 148 148 151 150 152 149 146 147 145 144 143 138 132 126 126 129 132 131 125 124 120 115 121 114 109 107 95 89 75 54 52 22 39 50 53 57 61 63 46 39 32 29 20 17 73 131 188 227 274 289 283 302 318 318 316 314 320 322 320 321 319 316 312
173 176 176 176 172 174 177 176 172 170 167 160 166 167 163 157 152 149 151 151 151 153 151 153 154 155 153 150 150 148 148 147 142 138 134 129 130 136 140 134 128 126 125 126 130 127 124 101 98 98 87 59 46 25 44 52 54 57 61 61 48 43 30 28 25 19 62 160 207 211 270 307 321 325 319 319 318 319 324 322 323 323 319 314 313
173 175 178 177 173 170 171 174 172 165 154 150 151 142 139 146 149 151 155 155 157 153 155 156 157 154 152 152 152 150 147 145 143 139 135 133 132 133 134 139 137 138 137 145 148 138 131 114 106 104 91 67 37 27 53 57 57 57 52 54 39 41 33 24 15 19 18 320 270 261 266 299 320 326 318 317 327 333 325 320 320 320 318 313 310
180 178 176 172 173 172 171 169 163 159 156 156 153 150 152 155 154 154 157 159 154 155 154 155 157 158 157 157 154 151 148 147 145 141 137 138 137 139 138 142 136 137 136 131 138 136 135 133 129 101 87 73 33 40 63 63 63 62 63 43 35 41 33 19 13 9 355 328 275 274 294 315 322 320 315 322 331 337 324 322 322 318 316 312 309
177 174 173 172 167 166 167 161 160 161 158 160 153 152 152 152 155 157 157 156 156 158 160 161 161 161 161 159 157 154 151 151 148 144 143 145 143 140 136 132 129 138 140 150 161 162 158 149 146 121 107 100 56 36 65 68 58 57 62 41 35 31 31 18 359 345 324 324 331 309 287 297 312 313 318 326 329 340 323 323 320 318 314 316 314
165 163 158 160 164 163 163 161 159 163 162 157 156 154 154 156 157 158 159 160 162 164 164 164 163 163 160 159 159 155 153 153 151 150 150 148 144 139 142 138 134 140 146 161 161 158 169 164 154 156 152 139 156 254 82 69 64 58 71 63 44 50 24 20 351 333 323 337 329 334 330 322 320 317 322 326 326 336 325 317 320 322 327 327 321
165 164 163 164 167 165 162 160 160 164 163 158 157 155 156 159 159 161 161 162 166 165 168 165 161 159 159 158 157 154 154 155 153 154 152 152 156 156 152 136 136 136 147 154 157 164 179 180 169 165 175 153 177 193 154 102 90 64 69 62 59 58 40 12 356 346 346 347 329 322 317 319 318 319 324 327 327 333 323 317 317 324 327 326 324
163 165 164 162 159 155 163 166 167 165 156 157 157 158 160 159 161 160 163 168 173 170 164 158 158 158 156 155 156 155 156 156 156 154 155 157 157 147 149 144 146 147 153 164 165 169 175 186 172 167 175 171 174 210 212 149 111 80 85 98 70 51 26 356 348 356 347 330 324 319 320 324 329 329 329 327 326 327 330 318 331 333 328 325 323
163 164 157 159 164 166 167 166 163 157 157 158 158 158 160 159 158 162 173 175 166 159 158 157 154 154 155 156 157 157 156 158 158 158 158 156 155 154 152 149 156 158 157 170 177 181 178 177 169 172 172 196 194 193 204 124 119 116 102 98 81 84 190 321 350 347 336 322 321 320 313 320 331 331 327 325 325 324 332 337 337 333 319 311 318
158 156 157 159 161 163 160 159 161 158 159 160 160 159 160 160 163 175 175 159 155 153 151 150 152 154 155 154 155 155 154 154 155 152 153 157 163 155 158 159 158 162 172 181 187 179 179 182 172 171 183 197 223 215 202 173 157 159 116 92 84 49 231 338 10 351 335 331 317 306 310 316 325 327 324 323 325 328 334 348 334 329 330 334 330
155 160 162 156 160 164 165 159 160 161 161 162 161 160 161 164 173 173 156 152 150 150 149 149 151 153 154 154 154 154 154 153 157 159 157 163 165 160 163 164 166 175 180 188 190 185 175 182 184 191 199 208 220 228 197 190 203 185 137 93 101 132 206 112 55 345 318 305 303 305 303 319 327 323 325 327 325 329 342 339 335 339 337 330 329
162 162 160 158 158 161 161 157 159 163 164 164 163 161 164 169 173 153 146 145 147 149 149 150 152 153 152 155 156 156 155 156 159 160 160 158 163 165 164 173 177 178 184 192 201 184 173 172 182 192 214 231 228 223 224 214 206 196 113 81 57 40 62 23 254 288 297 297 308 314 313 314 317 326 330 327 322 330 341 340 341 339 339 333 332
162 164 159 159 159 160 159 158 161 162 164 166 166 161 163 168 158 147 150 151 151 151 151 152 154 155 156 157 156 157 157 159 164 161 160 163 167 165 168 181 176 185 186 192 195 179 177 181 170 181 196 213 227 201 224 247 243 223 197 117 44 26 7 11 346 314 303 300 298 300 310 324 330 331 331 327 328 338 343 341 339 340 341 340 336
152 154 159 157 154 156 158 158 161 163 163 166 166 162 165 166 151 153 152 153 152 152 153 154 155 156 158 157 156 159 160 164 165 167 164 165 168 171 173 180 180 188 192 190 189 178 180 176 179 183 185 194 207 218 246 270 282 277 264 51 56 34 356 341 307 291 299 307 315 330 334 338 336 334 333 325 325 329 338 344 341 341 340 338 336
162 160 154 154 156 160 161 159 161 165 164 165 164 167 161 146 154 154 154 152 152 151 152 153 157 158 158 158 158 163 165 168 167 166 163 166 169 173 173 177 185 191 196 197 180 171 171 175 179 182 183 187 201 213 234 262 266 266 271 3 22 0 348 348 352 346 344 341 327 329 321 309 297 305 317 319 327 344 352 348 339 336 334 334 333
154 155 157 154 160 163 163 161 161 163 162 162 161 159 152 151 152 153 151 151 152 156 156 159 158 157 158 160 161 164 165 169 172 169 168 171 181 176 175 181 191 194 194 212 190 184 174 173 170 170 168 175 200 212 233 231 243 242 258 14 43 359 352 355 338 327 322 316 315 321 328 347 352 356 346 344 349 345 345 344 336 334 333 330 326
155 159 158 162 164 164 163 161 160 159 158 158 159 155 154 154 155 154 154 154 156 155 154 155 155 155 159 162 161 165 169 169 172 175 179 176 178 179 179 207 232 197 190 188 196 184 179 170 158 161 162 180 193 218 230 214 218 197 189 242 320 291 305 326 304 309 316 317 335 340 351 343 351 338 331 334 341 346 339 338 338 340 336 335 338
157 156 160 159 161 159 160 159 156 155 156 157 157 156 158 157 154 156 155 153 153 153 153 156 158 159 159 160 162 165 166 169 171 174 162 98 18 60 162 183 199 221 213 191 156 173 172 158 159 180 172 168 196 212 220 214 220 214 217 220 237 298 336 302 301 295 266 282 305 327 312 323 318 328 321 330 336 328 334 340 336 338 338 338 342
158 156 159 160 158 153 151 151 154 156 158 157 158 157 157 157 156 159 158 154 154 154 157 157 160 164 164 163 164 166 171 169 168 162 160 147 124 31 27 12 325 160 162 180 163 148 152 161 153 174 225 226 199 198 202 203 211 212 224 254 331 5 329 306 301 340 7 255 301 326 311 318 303 296 296 314 315 321 326 334 332 333 336 340 337